Date,TemperatureHighF,TemperatureAvgF,TemperatureLowF,DewpointHighF,DewpointAvgF,DewpointLowF,HumidityHigh,HumidityAvg,HumidityLow,PressureMaxIn,PressureMinIn,WindSpeedMaxMPH,WindSpeedAvgMPH,GustSpeedMaxMPH,PrecipitationSumIn
2013-1-1,53,48,40,53,47,40,100,98,81,30.09,29.96,12,2,12,0.84
2013-1-2,40,36,34,40,36,34,100,99,95,30.20,30.07,9,4,16,0.84
2013-1-3,47,36,29,36,32,26,99,86,61,30.37,30.17,8,2,9,0.01
2013-1-4,50,37,29,33,28,25,89,72,47,30.44,30.34,7,2,8,0.00
2013-1-5,49,38,27,39,32,25,98,79,52,30.39,30.25,5,0,7,0.07
2013-1-6,50,42,35,45,39,33,100,91,71,30.32,30.18,9,1,10,0.07
2013-1-7,54,39,28,38,32,27,96,78,51,30.38,30.25,7,2,8,0.01
2013-1-8,61,49,38,47,40,33,85,73,55,30.33,30.23,6,1,8,0.00
2013-1-9,59,55,51,59,54,47,100,97,82,30.37,30.26,8,1,8,0.76
2013-1-10,66,62,58,62,60,56,99,94,86,30.34,30.03,10,4,14,0.67
2013-1-11,69,66,63,65,63,61,100,93,83,30.11,30.02,12,5,19,0.02
2013-1-12,71,67,65,68,65,59,100,92,78,30.08,29.93,10,3,11,0.03
2013-1-13,70,61,40,67,59,40,100,94,79,30.15,29.87,11,6,19,0.03
2013-1-14,41,36,33,41,36,33,100,99,97,30.27,30.13,13,6,14,1.02
2013-1-15,40,37,35,40,37,35,100,100,100,30.15,29.94,9,5,11,0.44
2013-1-16,39,38,37,39,38,37,100,100,100,30.08,29.96,8,3,10,2.12
2013-1-17,41,37,34,39,36,33,100,95,84,30.40,29.92,14,8,20,0.38
2013-1-18,36,32,27,35,31,27,100,97,95,30.53,30.40,8,2,8,0.35
2013-1-19,58,44,34,37,34,31,90,69,44,30.40,30.20,8,2,12,0.03
2013-1-20,62,44,34,43,37,32,97,77,47,30.24,30.13,5,0,7,0.00
2013-1-21,49,39,31,36,26,19,83,61,38,30.26,30.11,12,3,12,0.00
2013-1-22,42,33,24,23,20,17,76,60,44,30.39,30.25,8,1,11,0.00
2013-1-23,57,45,33,40,32,22,71,60,47,30.36,30.16,8,1,10,0.00
2013-1-24,48,42,34,41,28,20,84,61,42,30.39,30.19,11,4,13,0.00
2013-1-25,49,44,38,48,36,22,100,77,48,30.24,30.07,9,2,10,0.18
2013-1-26,55,42,33,41,36,33,100,81,52,30.31,30.19,8,3,10,0.18
2013-1-27,52,46,38,42,38,32,82,73,66,30.35,30.26,9,2,9,0.00
2013-1-28,65,56,47,55,48,39,93,76,67,30.30,30.17,8,3,12,0.00
2013-1-29,70,62,54,64,60,53,98,92,81,30.17,29.74,12,4,13,0.00
2013-1-30,71,55,38,66,52,29,100,90,71,29.94,29.56,17,7,29,1.53
2013-1-31,50,43,33,34,31,29,87,63,49,30.16,29.94,9,3,11,1.53